Regional Weather Roundup
Issued by NWS

Home | Current Version | Previous Version | Graphics & Text | Print | Product List | Glossary On
Versions: 1 2 3 4 5 6 7 8 9 10 11 12 13 14 15 16 17 18 19 20 21 22 23 24 25 26 27 28 29 30 31 32 33 34 35 36 37 38 39 40 41 42 43 44 45 46 47 48 49 50
000
ASUS44 KMEG 180610
RWRTN
TENNESSEE HOURLY STATE WEATHER ROUNDUP
NATIONAL WEATHER SERVICE MEMPHIS TN
1200 AM CST MON DEC 18 2017

TNZ002-004-019-021-049-052-054-088>092-180700-
WEST TENNESSEE

CITY           SKY/WX    TMP DP  RH WIND       PRES   REMARKS
MEMPHIS INTL   CLOUDY    47  46  97 S6        30.12F
NWS MEMPHIS      N/A     47 N/A N/A MISG        N/A
JACKSON        CLOUDY    47  47 100 SW3       30.14S
DYERSBURG      CLOUDY    45  44  97 W5        30.15S FOG
SOMERVILLE     CLOUDY    46  46 100 CALM      30.12S FOG
COVINGTON      FOG       46  46 100 CALM      30.14S VSB 1/2
UNION CITY     CLOUDY    46  45  93 S6        30.14R
BOLIVAR        CLOUDY    46  46 100 S5        30.13S FOG
PARIS          CLOUDY    45  45 100 S6        30.12S FOG
HUNTINGDON     CLOUDY    46  46 100 CALM      30.13R FOG
LEXINGTON      CLOUDY    46  46 100 CALM      30.13F FOG
SELMER         FOG       46  46 100 CALM      30.13S VSB 1
SAVANNAH       FOG       46  46 100 CALM      30.13S VSB 1
$$

TNZ008-025-027-028-033-062-065-066-180700-
NORTH MIDDLE TENNESSEE

CITY           SKY/WX    TMP DP  RH WIND       PRES   REMARKS
NASHVILLE      FOG       47  46  97 S5        30.14F VSB 1/2
PORTLAND       CLOUDY    45  45 100 S5        30.12S FOG
CLARKSVILLE    CLOUDY    45  43  93 S5        30.13S FOG
SMYRNA         CLOUDY    47  46  97 S5        30.16S FOG
COOKEVILLE     CLOUDY    46  46 100 CALM      30.13F FOG
GALLATIN       FOG       45  45 100 CALM      30.16F VSB 1/2
CROSSVILLE     CLOUDY    43  42  97 CALM      30.13F FOG
$$

TNZ061-075-076-078-094-096-097-180700-
SOUTH MIDDLE TENNESSEE

CITY           SKY/WX    TMP DP  RH WIND       PRES   REMARKS
FAYETTEVILLE   FOG       46  46 100 CALM      30.14S VSB 1/2
TULLAHOMA      FOG       46  45  93 CALM      30.14R VSB 1/4
WINCHESTER     CLOUDY    45  45 100 SE5       30.15R
MCMINNVILLE    FOG       46  46 100 CALM      30.14S VSB 1/2
COLUMBIA       CLOUDY    46  46 100 CALM      30.13S FOG
SHELBYVILLE    CLOUDY    46  46 100 CALM      30.15R FOG
$$

TNZ017-018-042-046-047-180700-
NORTHEAST TENNESSEE

CITY           SKY/WX    TMP DP  RH WIND       PRES   REMARKS
TRI CITIES     FOG       39  39 100 CALM      30.17F VSB 3/4
ELIZABETHTON   CLOUDY    39  39 100 CALM      30.17F FOG
$$

TNZ012-013-036-069-073-074-180700-
CENTRAL EAST TENNESSEE

CITY           SKY/WX    TMP DP  RH WIND       PRES   REMARKS
KNOXVILLE      DRZL/FOG  40  40 100 E3        30.16F VSB 1
OAK RIDGE      CLOUDY    42  42 100 S3        30.19S FOG
DOWNTOWN KNOXV   N/A     41  41 100 CALM      30.19S FOG
GATLINBURG     CLOUDY    39  39 100 CALM      30.18F FOG
MORRISTOWN     CLOUDY    39  39 100 CALM      30.16F FOG
JACKSBORO      CLOUDY    41  41 100 CALM      30.19F FOG
$$

TNZ083-085-099-180700-
SOUTHEAST TENNESSEE

CITY           SKY/WX    TMP DP  RH WIND       PRES   REMARKS
CHATTANOOGA    FOG       43  41  93 N3        30.17F VSB 1/2
DAYTON         FOG       43  43 100 CALM      30.16F VSB 1/2
$$

SKY/WX REPORTED AS FAIR MEANS FEW OR NO CLOUDS BELOW
12 THOUSAND FEET.




USA.gov is the U.S. government's official web portal to all federal, state and local government web resources and services.